Location: Vancouver
(49.2500°N, 123.1330°W)
Time: 17:17:42
(UTC-07:00)

AO-27 - Visible Passes

Search period start: 28 June 2017 00:00
Search period end: 08 July 2017 00:00
Orbit: 786 x 797 km, 98.8° (Epoch: 28 June)

Date Brightness Start Highest point End Pass type
(mag) Time Alt. Az. Time Alt. Az. Time Alt. Az.
29 Jun 9.4 04:02:06 10° NE 04:06:41 30° E 04:11:14 10° SSE visible
30 Jun 10.1 03:33:53 10° NE 03:37:19 17° E 03:40:44 10° SE visible
02 Jul 9.1 04:14:18 10° NNE 04:19:10 37° E 04:23:58 10° SSE visible
03 Jul 9.8 03:45:50 10° NE 03:49:51 22° E 03:53:50 10° SE visible
04 Jul 10.3 03:18:17 10° ENE 03:20:24 12° E 03:22:30 10° ESE visible
05 Jul 8.7 04:26:33 10° NNE 04:31:37 46° E 04:36:38 10° S visible
06 Jul 9.5 03:57:55 10° NE 04:02:21 27° E 04:06:46 10° SSE visible
07 Jul 10.1 03:29:50 10° NE 03:32:58 16° E 03:36:04 10° SE visible
